Regional Weather Roundup
Issued by NWS

Home | Current Version | Previous Version | Graphics & Text | Print | Product List | Glossary On
Versions: 1 2 3 4 5 6 7 8 9 10 11 12 13 14 15 16 17 18 19 20 21 22 23 24 25 26 27 28 29 30 31 32 33 34 35 36 37 38 39 40 41 42 43 44 45 46 47 48 49 50
000
ASUS45 KBOU 041307
RWRCO

WEATHER ROUNDUP FOR COLORADO
NATIONAL WEATHER SERVICE DENVER/BOULDER CO
700 AM MDT FRI SEP 04 2015

NOTE: "FAIR" INDICATES FEW OR NO CLOUDS BELOW 12000 FEET WITH NO
SIGNIFICANT WEATHER AND/OR OBSTRUCTIONS TO VISIBILITY.

COZ001>005-013-030-031-041400-
...NORTHWEST COLORADO...

CITY           SKY/WX    TMP DP  RH WIND       PRES   REMARKS
CRAIG          CLEAR     44  41  89 CALM      30.09R
HAYDEN         CLEAR     48  39  71 E12       30.11R
MEEKER         MOCLDY    50  44  80 VRB6      30.10R
MOUNT WERNER   NOT AVBL
STEAMBOAT SPGS CLEAR     42  40  93 CALM      30.16R
WALDEN         CLEAR     39  36  87 SE6       30.23R
$$

COZ006>008-011-041400-
...WEST CENTRAL VALLEYS...

CITY           SKY/WX    TMP DP  RH WIND       PRES   REMARKS
GRAND JUNCTION MOCLDY    66  49  54 S10       30.00R
MONTROSE       MOCLDY    56  47  71 S8        30.11S
EAGLE          PTCLDY    45  45 100 CALM      30.23R
RIFLE          MOCLDY    56  50  80 NW5       30.09R
DELTA          RAIN      62  53  72 E10       30.07R
NUCLA          MOCLDY    59  46  63 E8        30.13S
$$

COZ017>023-064>068-041400-
...SOUTHWEST COLORADO...

CITY           SKY/WX    TMP DP  RH WIND       PRES   REMARKS
DURANGO        CLOUDY    56  44  64 W5        30.17R
CORTEZ         CLOUDY    59  47  64 N5        30.11R
PAGOSA SPRINGS CLOUDY    55  43  63 CALM      30.24R
TELLURIDE      LGT RAIN  50  43  76 CALM      30.32R
WOLF CREEK PAS NOT AVBL
$$

COZ009-010-012-014-032>034-037-058>063-041400-
...CENTRAL COLORADO...

CITY           SKY/WX    TMP DP  RH WIND       PRES   REMARKS
ASPEN          PTCLDY    45  41  86 NW3       30.23R
BUENA VISTA    PTCLDY    44  40  85 NW10      30.24S
COPPER MTN     PTCLDY    46  32  57 SW6       30.49R
BERTHOUD PASS  FAIR      37  27  65 NW21G32   30.51R
COTTONWOOD PAS NOT AVBL
GUNNISON       PTCLDY    43  41  93 CALM      30.28R
KREMMLING      CLOUDY    41  39  93 CALM      30.26R
LEADVILLE      CLEAR     37  35  92 CALM      30.34R
MONARCH PASS   CLEAR     43  34  70 W13       30.57R
SALIDA         PTCLDY    48  42  80 NW3       30.29S
SUNLIGHT       DRIZZLE   46  43  87 SW3       30.42R
WILKERSON PASS PTCLDY    43  36  75 W7        30.45R
$$

COZ069>075-041400-
...SAN LUIS VALLEY/SANGRE DE CRISTO MOUNTAINS...

CITY           SKY/WX    TMP DP  RH WIND       PRES   REMARKS
ALAMOSA        FOG       41  40  96 S3        30.23R VSB<1/4
LA VETA PASS   PTCLDY    45  37  76 S10       30.36R
SAGUACHE       PTCLDY    45  43  93 N8        30.25R
$$

COZ035-036-038>040-041400-
...NORTHERN COLORADO FRONT RANGE...

CITY           SKY/WX    TMP DP  RH WIND       PRES   REMARKS
DENVER INTL AP PTCLDY    59  48  67 SW12      30.00R
DMNS CITY PARK   N/A     58  48  70 W3        30.01R
AURORA         PTCLDY    59  48  66 S7        30.03R
FRONT RANGE AP MOCLDY    59  46  63 SW9       30.01R
ERIE MUNI ARPT CLEAR     48  46  91 CALM      30.00R
BOULDER MUN AP CLEAR     54  46  76 CALM      30.00R
CENTENNIAL     MOCLDY    57  47  69 S9        30.04R
BROOMFIELD     NOT AVBL
FORT COLLINS   CLEAR     54  46  76 N5        30.00R
LONGMONT       CLEAR     53  46  77 CALM      30.01R
$$

COZ041-046-047-076>085-087-088-041400-
...PIKES PEAK/PALMER DIVIDE AND SOUTHERN FOOTHILLS...

CITY           SKY/WX    TMP DP  RH WIND       PRES   REMARKS
COLO. SPRINGS  MOCLDY    57  47  69 N9        30.09R
A. F. ACADEMY  PTCLDY    57  44  61 N6        30.10R
ELLICOTT       PTCLDY   N/A N/A N/A MISG      30.07R
FALCON         PTCLDY    61  42  51 MISG      30.12S
FORT CARSON    PTCLDY    55  48  76 NW8       30.05R
LIMON          PTCLDY    53  50  89 CALM      30.03R
MONUMENT HILL  PTCLDY    55  41  58 SW9       30.13R
TRINIDAD       PTCLDY    54  45  71 W10       30.08R
$$

COZ042>045-048>051-090-091-041400-
...NORTHEAST COLORADO...

CITY           SKY/WX    TMP DP  RH WIND       PRES   REMARKS
GREELEY ARPT   CLEAR     48  45  87 CALM      29.99S
AKRON          CLEAR     58  51  78 W7        29.95R
BURLINGTON     CLEAR     60  52  74 W8        29.94R
WRAY           CLOUDY    58  55  88 W9        29.90R
STERLING       CLEAR     52  50  93 S5        29.92R
HOLYOKE        CLEAR     61  54  77 W10       29.90R
FORT MORGAN    CLEAR     53  50  91 CALM      29.98R
$$

COZ086-089-092>099-041400-
...SOUTHEAST COLORADO...

CITY           SKY/WX    TMP DP  RH WIND       PRES   REMARKS
PUEBLO         MOCLDY    58  51  78 CALM      30.00R
LA JUNTA       PTCLDY    63  51  65 W6        29.97R
LAMAR          CLEAR     58  53  84 SW5       29.92R
SPRINGFIELD      N/A     58  49  72 NW6       29.98R
$$



USA.gov is the U.S. government's official web portal to all federal, state and local government web resources and services.